This demonstration page uses our WeatherBlox Daily Observations layout. Learn more.

Left ArrowRight Arrow

44.8408, -93.29828

Hourly Observations for September 29, 2020

Temp ( °F °C ) Dew Point ( °F °C ) Humidity (%) Winds ( mph kmh ) Pressure ( in mb ) Visibility ( mi km ) Precip ( " mm )
12:53 am 00:53 Cloudy 51 10.6 45 7.2 80 80 WNW 10 17 29.89 1012 10 16 0.00 0.00
1:53 am 01:53 Cloudy 51 10.6 45 7.2 80 80 W 8 13 29.89 1012 10 16 0.00 0.00
2:06 am 02:06 Cloudy 51 10.6 45 7.2 80 80 W 6 9 29.89 1012 10 16 0.00 0.00
2:22 am 02:22 Cloudy 51 10.6 45 7.2 80 80 W 8 13 29.89 1012 10 16 0.00 0.00
2:53 am 02:53 Cloudy 51 10.6 45 7.2 80 80 WNW 7 11 29.88 1012 10 16 0.00 0.00
3:53 am 03:53 Cloudy 51 10.6 45 7.2 80 80 NW 9 15 29.87 1011 10 16 0.00 0.00
4:53 am 04:53 Cloudy 51 10.6 46 7.8 83 83 W 10 17 29.87 1012 10 16 0.00 0.00
5:53 am 05:53 Cloudy 51 10.6 45 7.2 80 80 W 6 9 29.86 1011 10 16 0.00 0.00
6:53 am 06:53 Cloudy 50 10 45 7.2 83 83 W 7 11 29.87 1011 10 16 0.00 0.00
7:36 am 07:36 Mostly Cloudy 48 8.9 45 7.2 89 89 SW 6 9 29.85 1011 10 16 0.00 0.00
7:53 am 07:53 Mostly Cloudy 48 8.9 45 7.2 89 89 WSW 5 7 29.86 1011 10 16 0.00 0.00
8:53 am 08:53 Mostly Cloudy 50 10 45 7.2 83 83 WSW 8 13 29.86 1011 10 16 0.00 0.00
9:53 am 09:53 Mostly Cloudy 53 11.7 45 7.2 74 74 W 8 13 29.85 1011 10 16 0.00 0.00
10:53 am 10:53 Cloudy 52 11.1 44 6.7 75 75 SW 7 11 29.83 1010 10 16 0.00 0.00
11:53 am 11:53 Mostly Cloudy 54 12.2 44 6.7 69 69 SW 9 15 29.81 1009 10 16 0.00 0.00
12:53 pm 12:53 Mostly Cloudy 58 14.4 44 6.7 60 60 SW 7 11 29.78 1008 10 16 0.00 0.00
1:53 pm 13:53 Mostly Cloudy 62 16.7 44 6.7 52 52 WSW 10 17 29.74 1007 10 16 0.00 0.00
2:53 pm 14:53 Mostly Cloudy 62 16.7 43 6.1 50 50 SSW 8 13 29.70 1006 10 16 0.00 0.00
3:53 pm 15:53 Mostly Cloudy 62 16.7 44 6.7 52 52 SSW 10 17 29.70 1006 10 16 0.00 0.00
4:53 pm 16:53 Mostly Cloudy 63 17.2 44 6.7 50 50 S 8 13 29.68 1005 10 16 0.00 0.00
5:53 pm 17:53 Mostly Cloudy 63 17.2 45 7.2 52 52 S 5 7 29.67 1005 10 16 0.00 0.00
6:53 pm 18:53 Mostly Cloudy 61 16.1 46 7.8 58 58 Calm 29.65 1004 10 16 0.00 0.00
7:53 pm 19:53 Partly Cloudy 59 15 47 8.3 64 64 NNW 3 6 29.67 1005 10 16 0.00 0.00
8:53 pm 20:53 Partly Cloudy 58 14.4 46 7.8 65 65 W 7 11 29.67 1005 10 16 0.00 0.00
9:53 pm 21:53 Partly Cloudy 56 13.3 45 7.2 67 67 W 6 9 29.66 1005 10 16 0.00 0.00
10:53 pm 22:53 Mostly Clear 55 12.8 44 6.7 67 67 W 5 7 29.64 1004 10 16 0.00 0.00
11:53 pm 23:53 Mostly Clear 53 11.7 44 6.7 72 72 SW 6 9 29.63 1004 10 16 0.00 0.00

Powered by AerisWeather